Zurück zum Katalog

COSMOS 375 DEB

AktivLEO
NORAD 4634·DEBRIS·🇷🇺 Russia

Gestartet Oct 30, 1970 von Baikonur Cosmodrome

Loading…

Nächste Überflüge (nächste 24 Stunden)

TLE

AktuellSource: Space-Track

Epoche: Sep 14, 2026, 10:52 UTC

1 04634U 70091L   26257.45281397  .00004167  00000-0  63595-3 0  9994
2 04634  62.7860 204.8915 0533334  95.4340 270.7767 14.09472751756951

Verfolge COSMOS 375 DEB in Echtzeit mit AllMySat

Download on the App Store